Lubbock, TX

4:25 PM CST on December 12, 2019 (GMT -0600)
Lubbock International

Weather History for KLBB - May, 2019

Change the Weather History Date:

Saturday, May 18, 2019

  Actual Average Record
Temperature  
Mean Temperature 68 °F 70 °F  
Max Temperature 84 °F 84 °F 103 °F (2003)
Min Temperature 53 °F 57 °F 42 °F (1916)
Degree Days  
Heating Degree Days 0 1  
Month to date heating degree days 51 31  
Since 1 July heating degree days 3448 3368  
Cooling Degree Days 4 7  
Month to date cooling degree days 69 85  
Year to date cooling degree days 132 141  
Growing Degree Days 18 (Base 50)    
Moisture  
Dew Point 32 °F    
Average Humidity 33    
Maximum Humidity 87    
Minimum Humidity 7    
Precipitation  
Precipitation 0.00 in 0.08 in 1.39 in (2007)
Month to date precipitation 0.69 1.13  
Year to date precipitation 3.61 5.04  
Snow  
Snow 0.00 in 0.00 in 0.00 in (2002)
Month to date snowfall T 0.0  
Since 1 July snowfall 10.1 8.2  
Snow Depth 0.00 in    
Sea Level Pressure  
Sea Level Pressure 29.57 in    
Wind  
Wind Speed 15 mph ()    
Max Wind Speed 38 mph    
Max Gust Speed 55 mph    
Visibility 10.0 miles    
Events      
T = Trace of Precipitation, MM = Missing Value Source: Averaged Metar Reports

Daily Weather History Graph

Daily Weather History Graph

Search for Another Location

Airport or City:

Astronomy

May. 18, 2019 Rise Set
Actual Time 6:44 AM CDT 8:43 PM CDT
Civil Twilight 6:16 AM CDT 9:10 PM CDT
Nautical Twilight 5:43 AM CDT 9:44 PM CDT
Astronomical Twilight 5:07 AM CDT 10:20 PM CDT
Moon 8:43 PM CDT (5/18) 6:48 AM CDT (5/18)
Length of Visible Light 14h 54m
Length of Day
13h 58m
Full, 100% of the Moon is Illuminated
May 18
Full
May 18
Full
May 26
Last Quarter
Jun 3
New
Jun 10
First Quarter

Hourly Weather History & Observations

Time (CDT) Temp. Dew Point Humidity Pressure Visibility Wind Dir Wind Speed Gust Speed Precip Events Conditions
12:53 AM 73.0 °F 64.0 °F 73% 29.57 in 10.0 mi SSW 21.9 mph - N/A   Scattered Clouds
1:53 AM 71.1 °F 63.0 °F 75% 29.57 in 10.0 mi SSW 17.3 mph - N/A   Scattered Clouds
2:53 AM 70.0 °F 63.0 °F 78% 29.56 in 10.0 mi SSW 16.1 mph - N/A   Scattered Clouds
3:53 AM 68.0 °F 62.1 °F 81% 29.55 in 10.0 mi SSW 9.2 mph - N/A   Mostly Cloudy
4:53 AM 66.0 °F 62.1 °F 87% 29.49 in 10.0 mi West 10.4 mph - N/A   Mostly Cloudy
5:53 AM 64.0 °F 59.0 °F 84% 29.52 in 10.0 mi West 9.2 mph - N/A   Mostly Cloudy
6:53 AM 64.0 °F 50.0 °F 60% 29.55 in 10.0 mi Calm Calm - N/A   Mostly Cloudy
7:53 AM 61.0 °F 33.1 °F 35% 29.57 in 10.0 mi WNW 9.2 mph - N/A   Mostly Cloudy
8:53 AM 62.1 °F 30.0 °F 30% 29.60 in 10.0 mi WNW 6.9 mph - N/A   Mostly Cloudy
9:53 AM 73.0 °F 28.9 °F 20% 29.57 in 10.0 mi NW 17.3 mph 21.9 mph N/A   Mostly Cloudy
10:53 AM 75.9 °F 21.9 °F 13% 29.55 in 10.0 mi WNW 24.2 mph 32.2 mph N/A   Mostly Cloudy
11:53 AM 77.0 °F 23.0 °F 13% 29.56 in 10.0 mi NW 21.9 mph 28.8 mph N/A   Mostly Cloudy
12:53 PM 79.0 °F 24.1 °F 13% 29.56 in 10.0 mi West 23.0 mph 32.2 mph N/A   Scattered Clouds
1:53 PM 80.1 °F 23.0 °F 12% 29.55 in 10.0 mi West 24.2 mph 32.2 mph N/A   Partly Cloudy
2:53 PM 81.0 °F 21.0 °F 11% 29.54 in 10.0 mi WSW 29.9 mph 38.0 mph N/A   Clear
3:53 PM 82.9 °F 19.0 °F 9% 29.54 in 10.0 mi West 25.3 mph 35.7 mph N/A   Partly Cloudy
4:53 PM 82.9 °F 12.9 °F 7% 29.53 in 10.0 mi West 28.8 mph 42.6 mph N/A   Partly Cloudy
5:53 PM 82.0 °F 12.0 °F 7% 29.54 in 9.0 mi West 32.2 mph 43.7 mph N/A   Partly Cloudy
6:53 PM 80.1 °F 12.9 °F 8% 29.56 in 10.0 mi West 27.6 mph 38.0 mph N/A   Partly Cloudy
7:53 PM 78.1 °F 12.0 °F 8% 29.59 in 10.0 mi WNW 28.8 mph 34.5 mph N/A   Partly Cloudy
8:53 PM 71.1 °F 16.0 °F 12% 29.64 in 10.0 mi WNW 13.8 mph - N/A   Partly Cloudy
9:53 PM 66.0 °F 17.1 °F 15% 29.66 in 10.0 mi West 11.5 mph - N/A   Partly Cloudy
10:53 PM 63.0 °F 19.0 °F 18% 29.68 in 10.0 mi WNW 10.4 mph - N/A   Partly Cloudy
11:53 PM 59.0 °F 21.0 °F 23% 29.72 in 10.0 mi West 6.9 mph - N/A   Partly Cloudy